| time (UTC) | temp C | wind direction | speed KPH | gust KPH | rain 1hr cm | rain 24hr cm | rain mn cm | humidity % | barometer mb |
| 20260504174554 | 25 | 221 | 3.2 | 14.5 | 0.00 | 0.00 | 0.00 | 32 | 1012.6 |
| 20260504173049 | 25 | 222 | 3.2 | 8.0 | 0.00 | 0.00 | 0.00 | 33 | 1012.8 |
| 20260504171549 | 25 | 222 | 4.8 | 16.1 | 0.00 | 0.00 | 0.00 | 32 | 1013.0 |
| 20260504081522 | 8 | 222 | 0.0 | 3.2 | 0.00 | 0.00 | 0.00 | 69 | 1015.7 |
| 20260504050009 | 8 | 222 | 0.0 | 0.0 | 0.00 | 0.00 | 0.00 | 71 | 1016.0 |
| 20260504044509 | 8 | 222 | 0.0 | 0.0 | 0.00 | 0.00 | 0.00 | 71 | 1016.0 |
| 20260504043006 | 8 | 222 | 0.0 | 0.0 | 0.00 | 0.00 | 0.00 | 71 | 1015.8 |
| 20260504041503 | 8 | 222 | 0.0 | 0.0 | 0.00 | 0.00 | 0.00 | 69 | 1015.7 |
| 20260504040006 | 8 | 222 | 0.0 | 0.0 | 0.00 | 0.00 | 0.00 | 68 | 1015.7 |
| 20260504034617 | 8 | 222 | 0.0 | 0.0 | 0.00 | 0.00 | 0.00 | 68 | 1015.6 |
| 20260504033105 | 8 | 222 | 0.0 | 0.0 | 0.00 | 0.00 | 0.00 | 70 | 1015.6 |
| 20260504031605 | 7 | 222 | 0.0 | 0.0 | 0.00 | 0.00 | 0.00 | 71 | 1015.5 |
| 20260504030100 | 7 | 222 | 0.0 | 0.0 | 0.00 | 0.00 | 0.00 | 71 | 1015.7 |
| 20260504024559 | 7 | 222 | 0.0 | 0.0 | 0.00 | 0.00 | 0.00 | 69 | 1015.6 |
| 20260504023100 | 7 | 222 | 0.0 | 0.0 | 0.00 | 0.00 | 0.00 | 68 | 1015.5 |
| 20260504021601 | 7 | 222 | 0.0 | 0.0 | 0.00 | 0.00 | 0.00 | 66 | 1015.5 |
| 20260504020112 | 8 | 222 | 0.0 | 1.6 | 0.00 | 0.00 | 0.00 | 64 | 1015.4 |
| 20260504014602 | 8 | 222 | 0.0 | 1.6 | 0.00 | 0.00 | 0.00 | 62 | 1015.2 |
| 20260504013105 | 8 | 222 | 0.0 | 1.6 | 0.00 | 0.00 | 0.00 | 60 | 1015.2 |
| 20260504011555 | 9 | 222 | 0.0 | 1.6 | 0.00 | 0.00 | 0.00 | 59 | 1015.2 |
| 20260504010055 | 10 | 222 | 0.0 | 0.0 | 0.00 | 0.00 | 0.00 | 56 | 1015.1 |
| 20260504004557 | 10 | 222 | 0.0 | 1.6 | 0.00 | 0.00 | 0.00 | 53 | 1015.0 |
| 20260504003057 | 11 | 222 | 0.0 | 0.0 | 0.00 | 0.00 | 0.00 | 50 | 1014.9 |
| 20260504001558 | 12 | 222 | 0.0 | 0.0 | 0.00 | 0.00 | 0.00 | 46 | 1014.9 |
| 20260504000058 | 13 | 222 | 0.0 | 0.0 | 0.00 | 0.00 | 0.00 | 42 | 1014.7 |
| 20260503234552 | 14 | 222 | 0.0 | 4.8 | 0.00 | 0.00 | 0.00 | 40 | 1014.6 |
| 20260503233052 | 15 | 222 | 0.0 | 1.6 | 0.00 | 0.00 | 0.00 | 35 | 1014.5 |
| 20260503231551 | 16 | 222 | 0.0 | 1.6 | 0.00 | 0.00 | 0.00 | 32 | 1014.3 |
| 20260503230106 | 18 | 222 | 1.6 | 8.0 | 0.00 | 0.00 | 0.00 | 28 | 1014.3 |
| 20260503224557 | 19 | 222 | 0.0 | 4.8 | 0.00 | 0.00 | 0.00 | 27 | 1014.3 |
| 20260503223050 | 20 | 222 | 1.6 | 8.0 | 0.00 | 0.00 | 0.00 | 27 | 1014.4 |
| 20260503221550 | 19 | 222 | 0.0 | 4.8 | 0.00 | 0.00 | 0.00 | 28 | 1014.5 |
| 20260503220049 | 19 | 222 | 0.0 | 8.0 | 0.00 | 0.00 | 0.00 | 25 | 1014.7 |
| 20260503214549 | 19 | 222 | 1.6 | 8.0 | 0.00 | 0.00 | 0.00 | 26 | 1014.6 |
| 20260503213045 | 19 | 222 | 1.6 | 11.3 | 0.00 | 0.00 | 0.00 | 26 | 1014.6 |
| 20260503211603 | 19 | 222 | 1.6 | 9.7 | 0.00 | 0.00 | 0.00 | 27 | 1014.7 |
| 20260503210043 | 18 | 222 | 0.0 | 8.0 | 0.00 | 0.00 | 0.00 | 28 | 1014.8 |
| 20260503204540 | 18 | 222 | 1.6 | 11.3 | 0.00 | 0.00 | 0.00 | 27 | 1014.9 |
| 20260503203044 | 18 | 222 | 6.4 | 14.5 | 0.00 | 0.00 | 0.00 | 29 | 1015.1 |
| 20260503201534 | 18 | 224 | 3.2 | 9.7 | 0.00 | 0.00 | 0.00 | 28 | 1015.2 |
| 20260503200041 | 17 | 224 | 3.2 | 17.7 | 0.00 | 0.00 | 0.00 | 29 | 1015.4 |
| 20260503194530 | 17 | 225 | 4.8 | 20.9 | 0.00 | 0.00 | 0.00 | 29 | 1015.6 |
| 20260503193033 | 17 | 228 | 6.4 | 14.5 | 0.00 | 0.00 | 0.00 | 29 | 1015.8 |
| 20260503191528 | 17 | 229 | 4.8 | 12.9 | 0.00 | 0.00 | 0.00 | 29 | 1016.2 |
| 20260503190032 | 17 | 229 | 4.8 | 14.5 | 0.00 | 0.00 | 0.00 | 30 | 1016.4 |
| 20260503184530 | 17 | 229 | 3.2 | 19.3 | 0.00 | 0.00 | 0.00 | 31 | 1016.7 |
| 20260503183022 | 17 | 229 | 3.2 | 14.5 | 0.00 | 0.00 | 0.00 | 30 | 1016.8 |
| 20260503181520 | 16 | 230 | 3.2 | 12.9 | 0.00 | 0.00 | 0.00 | 33 | 1017.1 |
| 20260503180035 | 16 | 230 | 0.0 | 16.1 | 0.00 | 0.00 | 0.00 | 32 | 1017.1 |